When you browse on this site, cookies collect data to enhance your experience and personalize the content and advertising you see.
Visit our Privacy Policy to learn more. By continuing to use the site, you agree to this use of cookies and data.
  • Em Portugal
  • Lista de países
  • Para 7 dias
  • Temperatura da água
  • Mapa do tempo
  • Widgets de tempo
  • user-avatar
    Iniciar Sessão

    Previsão horária em Mataro

    Hoje, 20 Agosto, Terça-feira

    Tempo Temperatura Precipitação Vento Pressão Humidade
    00:00 +23°C° 0 mm 4 m/s 750 mmHg 68%
    01:00 +23°C° 0 mm 4 m/s 750 mmHg 66%
    02:00 +23°C° 0 mm 4 m/s 750 mmHg 65%
    03:00 +24°C° 0 mm 3 m/s 750 mmHg 63%
    04:00 +24°C° 0 mm 3 m/s 750 mmHg 63%
    05:00 +24°C° 0 mm 3 m/s 750 mmHg 63%
    06:00 +24°C° 0 mm 3 m/s 750 mmHg 63%
    07:00 +26°C° 0 mm 3 m/s 751 mmHg 58%
    08:00 +27°C° 0 mm 3 m/s 751 mmHg 53%
    09:00 +28°C° 0 mm 3 m/s 752 mmHg 48%
    10:00 +29°C° 0 mm 4 m/s 752 mmHg 48%
    11:00 +29°C° 0 mm 4 m/s 752 mmHg 48%
    12:00 +29°C° 0 mm 4 m/s 753 mmHg 47%
    13:00 +29°C° 0 mm 4 m/s 753 mmHg 47%
    14:00 +29°C° 0 mm 5 m/s 753 mmHg 47%
    15:00 +29°C° 0 mm 5 m/s 752 mmHg 47%
    16:00 +28°C° 0 mm 5 m/s 752 mmHg 49%
    17:00 +27°C° 0 mm 6 m/s 753 mmHg 52%
    18:00 +27°C° 0 mm 6 m/s 753 mmHg 54%
    19:00 +26°C° 0 mm 6 m/s 753 mmHg 56%
    20:00 +25°C° 0 mm 5 m/s 753 mmHg 59%
    21:00 +22°C° 0 mm 5 m/s 753 mmHg 62%
    22:00 +22°C° 0 mm 5 m/s 753 mmHg 64%
    23:00 +22°C° 0 mm 4 m/s 753 mmHg 65%

    Amanhã, 21 Agosto, Quarta-feira

    Tempo Temperatura Precipitação Vento Pressão Humidade
    00:00 +22°C° 0 mm 4 m/s 753 mmHg 67%
    01:00 +22°C° 0 mm 3 m/s 753 mmHg 69%
    02:00 +21°C° 0 mm 3 m/s 753 mmHg 71%
    03:00 +21°C° 0 mm 2 m/s 753 mmHg 73%
    04:00 +21°C° 0 mm 2 m/s 753 mmHg 73%
    05:00 +21°C° 0 mm 2 m/s 752 mmHg 73%
    06:00 +22°C° 0 mm 1 m/s 752 mmHg 73%
    07:00 +24°C° 0 mm 1 m/s 752 mmHg 66%
    08:00 +26°C° 0 mm 1 m/s 753 mmHg 58%
    09:00 +28°C° 0 mm 1 m/s 753 mmHg 50%
    10:00 +29°C° 0 mm 2 m/s 752 mmHg 47%
    11:00 +30°C° 0 mm 3 m/s 752 mmHg 44%
    12:00 +31°C° 0 mm 3 m/s 752 mmHg 41%
    13:00 +31°C° 0 mm 3 m/s 751 mmHg 43%
    14:00 +30°C° 0 mm 3 m/s 751 mmHg 45%
    15:00 +30°C° 0 mm 3 m/s 751 mmHg 47%
    16:00 +29°C° 0 mm 3 m/s 751 mmHg 54%
    17:00 +28°C° 0 mm 2 m/s 751 mmHg 60%
    18:00 +27°C° 0 mm 2 m/s 751 mmHg 66%
    19:00 +26°C° 0 mm 2 m/s 751 mmHg 70%
    20:00 +25°C° 0 mm 2 m/s 751 mmHg 73%
    21:00 +24°C° 0 mm 2 m/s 752 mmHg 76%
    22:00 +24°C° 0 mm 2 m/s 752 mmHg 76%
    23:00 +24°C° 0 mm 2 m/s 752 mmHg 76%

    Depois de amanhã, 22 Agosto, Quinta-feira

    Tempo Temperatura Precipitação Vento Pressão Humidade
    00:00 +24°C° 0 mm 2 m/s 752 mmHg 76%
    01:00 +24°C° 0 mm 2 m/s 752 mmHg 76%
    02:00 +24°C° 0 mm 2 m/s 752 mmHg 76%
    03:00 +23°C° 0 mm 1 m/s 751 mmHg 76%
    04:00 +23°C° 0 mm 1 m/s 751 mmHg 75%
    05:00 +23°C° 0 mm 1 m/s 752 mmHg 73%
    06:00 +24°C° 0 mm 1 m/s 752 mmHg 72%
    07:00 +25°C° 0 mm 1 m/s 752 mmHg 65%
    08:00 +27°C° 0 mm 1 m/s 752 mmHg 57%
    09:00 +29°C° 0 mm 1 m/s 752 mmHg 50%
    10:00 +30°C° 0 mm 1 m/s 752 mmHg 48%
    11:00 +31°C° 0 mm 2 m/s 752 mmHg 45%
    12:00 +33°C° 0 mm 3 m/s 752 mmHg 43%
    13:00 +31°C° 0 mm 3 m/s 752 mmHg 44%
    14:00 +32°C° 0 mm 4 m/s 752 mmHg 46%
    15:00 +32°C° 0 mm 4 m/s 751 mmHg 47%
    16:00 +30°C° 0 mm 3 m/s 751 mmHg 52%
    17:00 +29°C° 0 mm 3 m/s 751 mmHg 58%
    18:00 +28°C° 0 mm 3 m/s 751 mmHg 63%
    19:00 +27°C° 0 mm 3 m/s 751 mmHg 65%
    20:00 +26°C° 0 mm 3 m/s 752 mmHg 66%
    21:00 +26°C° 0 mm 3 m/s 752 mmHg 68%
    22:00 +25°C° 0 mm 2 m/s 752 mmHg 64%
    23:00 +25°C° 0 mm 2 m/s 752 mmHg 59%

    23 Agosto, Sexta-feira

    Tempo Temperatura Precipitação Vento Pressão Humidade
    00:00 +25°C° 0 mm 2 m/s 752 mmHg 55%
    01:00 +25°C° 0 mm 2 m/s 752 mmHg 53%
    02:00 +24°C° 0 mm 2 m/s 751 mmHg 51%
    03:00 +24°C° 0 mm 2 m/s 751 mmHg 49%
    04:00 +24°C° 0 mm 2 m/s 751 mmHg 47%
    05:00 +24°C° 0 mm 2 m/s 751 mmHg 46%
    06:00 +24°C° 0 mm 1 m/s 751 mmHg 45%
    07:00 +27°C° 0 mm 1 m/s 752 mmHg 40%
    08:00 +29°C° 0 mm 1 m/s 752 mmHg 35%
    09:00 +31°C° 0 mm 1 m/s 752 mmHg 30%
    10:00 +32°C° 0 mm 1 m/s 752 mmHg 30%
    11:00 +34°C° 0 mm 2 m/s 752 mmHg 29%
    12:00 +34°C° 0 mm 2 m/s 751 mmHg 28%
    13:00 +34°C° 0 mm 2 m/s 751 mmHg 30%
    14:00 +34°C° 0 mm 2 m/s 751 mmHg 32%
    15:00 +33°C° 0 mm 3 m/s 750 mmHg 34%
    16:00 +31°C° 0 mm 2 m/s 750 mmHg 39%
    17:00 +29°C° 0 mm 1 m/s 750 mmHg 43%
    18:00 +28°C° 0 mm 1 m/s 750 mmHg 48%
    19:00 +27°C° 0 mm 1 m/s 750 mmHg 50%
    20:00 +26°C° 0 mm 1 m/s 751 mmHg 52%
    21:00 +24°C° 0 mm 0 m/s 751 mmHg 54%
    22:00 +23°C° 0 mm 0 m/s 751 mmHg 54%
    23:00 +25°C° 0 mm 1 m/s 751 mmHg 53%

    24 Agosto, Sábado

    Tempo Temperatura Precipitação Vento Pressão Humidade
    00:00 +25°C° 0 mm 1 m/s 751 mmHg 53%
    01:00 +25°C° 0 mm 1 m/s 751 mmHg 54%
    02:00 +23°C° 0 mm 0 m/s 750 mmHg 54%
    03:00 +22°C° 0 mm 0 m/s 750 mmHg 55%
    04:00 +22°C° 0 mm 0 m/s 750 mmHg 55%
    05:00 +22°C° 0 mm 0 m/s 750 mmHg 55%
    06:00 +22°C° 0 mm 0 m/s 750 mmHg 55%
    07:00 +27°C° 0 mm 1 m/s 751 mmHg 50%
    08:00 +29°C° 0 mm 1 m/s 751 mmHg 44%
    09:00 +31°C° 0 mm 1 m/s 751 mmHg 38%
    10:00 +31°C° 0 mm 2 m/s 751 mmHg 38%
    11:00 +32°C° 0 mm 2 m/s 751 mmHg 39%
    12:00 +33°C° 0 mm 3 m/s 751 mmHg 39%
    13:00 +33°C° 0 mm 3 m/s 750 mmHg 41%
    14:00 +31°C° 0 mm 3 m/s 750 mmHg 44%
    15:00 +31°C° 0 mm 3 m/s 750 mmHg 46%
    16:00 +30°C° 0 mm 2 m/s 750 mmHg 51%
    17:00 +29°C° 0 mm 2 m/s 750 mmHg 55%
    18:00 +28°C° 0 mm 1 m/s 750 mmHg 59%
    19:00 +27°C° 0 mm 1 m/s 750 mmHg 62%
    20:00 +26°C° 0 mm 1 m/s 750 mmHg 64%
    21:00 +25°C° 0 mm 1 m/s 750 mmHg 66%
    22:00 +25°C° 0 mm 2 m/s 750 mmHg 67%
    23:00 +25°C° 0 mm 2 m/s 750 mmHg 67%

    25 Agosto, Domingo

    Tempo Temperatura Precipitação Vento Pressão Humidade
    00:00 +25°C° 0 mm 2 m/s 750 mmHg 68%
    01:00 +25°C° 0 mm 2 m/s 750 mmHg 68%
    02:00 +24°C° 0 mm 2 m/s 749 mmHg 69%
    03:00 +24°C° 0 mm 2 m/s 749 mmHg 70%
    04:00 +24°C° 0 mm 2 m/s 749 mmHg 70%
    05:00 +25°C° 0 mm 2 m/s 749 mmHg 69%
    06:00 +25°C° 0 mm 2 m/s 750 mmHg 69%
    07:00 +27°C° 0 mm 2 m/s 750 mmHg 61%
    08:00 +28°C° 0 mm 2 m/s 750 mmHg 53%
    09:00 +30°C° 0 mm 2 m/s 750 mmHg 46%
    10:00 +31°C° 0 mm 2 m/s 750 mmHg 43%
    11:00 +33°C° 0 mm 3 m/s 750 mmHg 40%
    12:00 +33°C° 0 mm 3 m/s 750 mmHg 38%
    13:00 +33°C° 0 mm 3 m/s 749 mmHg 38%
    14:00 +33°C° 0 mm 3 m/s 749 mmHg 39%
    15:00 +31°C° 0 mm 3 m/s 749 mmHg 39%
    16:00 +30°C° 0 mm 2 m/s 749 mmHg 44%
    17:00 +29°C° 0 mm 2 m/s 749 mmHg 49%
    18:00 +28°C° 0 mm 2 m/s 749 mmHg 54%
    19:00 +27°C° 0 mm 1 m/s 749 mmHg 56%
    20:00 +27°C° 0 mm 1 m/s 750 mmHg 58%
    21:00 +26°C° 0 mm 1 m/s 750 mmHg 59%
    22:00 +26°C° 0 mm 1 m/s 750 mmHg 60%
    23:00 +26°C° 0 mm 1 m/s 750 mmHg 60%
    Mostrar mais